• In United Kingdom
  • List of Countries
  • For 7 days
  • Water Temperature
  • Satellite Maps
  • Weather Map
  • Weather Widgets
  • user-avatar
    Login

    Hourly Weather Kaprun

    Today, 28 July, Friday

    Time Temperature Precipitation Wind Pressure Humidity
    00:00 +7°C° 0.3 mm 1 mps 596 mmHg 92%
    01:00 +7°C° 0.3 mm 1 mps 596 mmHg 93%
    02:00 +7°C° 0.7 mm 1 mps 596 mmHg 93%
    03:00 +7°C° 0.7 mm 1 mps 596 mmHg 93%
    04:00 +7°C° 0.7 mm 1 mps 596 mmHg 93%
    05:00 +7°C° 0.7 mm 1 mps 596 mmHg 92%
    06:00 +8°C° 0.7 mm 1 mps 597 mmHg 91%
    07:00 +8°C° 0.7 mm 1 mps 597 mmHg 90%
    08:00 +10°C° 0.3 mm 1 mps 598 mmHg 85%
    09:00 +12°C° 0.3 mm 1 mps 599 mmHg 80%
    10:00 +14°C° 0.3 mm 1 mps 600 mmHg 74%
    11:00 +14°C° 0.4 mm 1 mps 600 mmHg 73%
    12:00 +15°C° 0.4 mm 1 mps 600 mmHg 71%
    13:00 +15°C° 0.4 mm 1 mps 601 mmHg 70%
    14:00 +15°C° 0.7 mm 1 mps 600 mmHg 74%
    15:00 +14°C° 0.7 mm 1 mps 600 mmHg 78%
    16:00 +13°C° 0.7 mm 2 mps 600 mmHg 82%
    17:00 +13°C° 0.4 mm 1 mps 600 mmHg 86%
    18:00 +12°C° 0.4 mm 1 mps 600 mmHg 90%
    19:00 +11°C° 0.4 mm 1 mps 600 mmHg 94%
    20:00 +11°C° 0.1 mm 1 mps 600 mmHg 95%
    21:00 +10°C° 0.1 mm 1 mps 600 mmHg 96%
    22:00 +9°C° 0.1 mm 1 mps 600 mmHg 97%
    23:00 +9°C° 0 mm 1 mps 600 mmHg 97%

    Tomorrow, 29 July, Saturday

    Time Temperature Precipitation Wind Pressure Humidity
    00:00 +8°C° 0 mm 1 mps 600 mmHg 97%
    01:00 +7°C° 0 mm 1 mps 600 mmHg 97%
    02:00 +7°C° 0 mm 1 mps 599 mmHg 96%
    03:00 +7°C° 0 mm 1 mps 599 mmHg 96%
    04:00 +7°C° 0 mm 1 mps 599 mmHg 95%
    05:00 +8°C° 0 mm 1 mps 600 mmHg 93%
    06:00 +10°C° 0 mm 1 mps 601 mmHg 91%
    07:00 +12°C° 0 mm 1 mps 602 mmHg 88%
    08:00 +13°C° 0 mm 1 mps 603 mmHg 80%
    09:00 +15°C° 0 mm 1 mps 604 mmHg 71%
    10:00 +18°C° 0 mm 1 mps 604 mmHg 63%
    11:00 +17°C° 0.1 mm 2 mps 604 mmHg 63%
    12:00 +18°C° 0.1 mm 2 mps 604 mmHg 63%
    13:00 +18°C° 0.1 mm 2 mps 604 mmHg 63%
    14:00 +18°C° 0.5 mm 2 mps 604 mmHg 65%
    15:00 +18°C° 0.5 mm 2 mps 604 mmHg 67%
    16:00 +17°C° 0.5 mm 2 mps 604 mmHg 69%
    17:00 +16°C° 1 mm 2 mps 603 mmHg 76%
    18:00 +15°C° 1 mm 1 mps 603 mmHg 83%
    19:00 +14°C° 1 mm 1 mps 602 mmHg 90%
    20:00 +13°C° 1.6 mm 1 mps 602 mmHg 92%
    21:00 +12°C° 1.6 mm 1 mps 602 mmHg 94%
    22:00 +11°C° 1.6 mm 1 mps 602 mmHg 96%
    23:00 +11°C° 0.8 mm 1 mps 601 mmHg 95%

    Day after tomorrow, 30 July, Sunday

    Time Temperature Precipitation Wind Pressure Humidity
    00:00 +10°C° 0.8 mm 1 mps 601 mmHg 95%
    01:00 +9°C° 0.8 mm 2 mps 601 mmHg 95%
    02:00 +9°C° 0.3 mm 2 mps 601 mmHg 95%
    03:00 +9°C° 0.3 mm 2 mps 600 mmHg 95%
    04:00 +8°C° 0.3 mm 2 mps 600 mmHg 95%
    05:00 +9°C° 0.2 mm 2 mps 600 mmHg 93%
    06:00 +10°C° 0.2 mm 2 mps 601 mmHg 91%
    07:00 +12°C° 0.2 mm 2 mps 601 mmHg 89%
    08:00 +14°C° 0.2 mm 1 mps 602 mmHg 79%
    09:00 +18°C° 0.2 mm 1 mps 603 mmHg 68%
    10:00 +20°C° 0.2 mm 1 mps 604 mmHg 58%
    11:00 +20°C° 0.7 mm 1 mps 604 mmHg 58%
    12:00 +21°C° 0.7 mm 1 mps 604 mmHg 57%
    13:00 +21°C° 0.7 mm 1 mps 604 mmHg 56%
    14:00 +21°C° 1.3 mm 1 mps 603 mmHg 60%
    15:00 +20°C° 1.3 mm 1 mps 603 mmHg 63%
    16:00 +19°C° 1.3 mm 1 mps 603 mmHg 66%
    17:00 +18°C° 2.7 mm 1 mps 602 mmHg 75%
    18:00 +15°C° 2.7 mm 1 mps 602 mmHg 84%
    19:00 +13°C° 2.7 mm 1 mps 601 mmHg 93%
    20:00 +13°C° 1.1 mm 1 mps 601 mmHg 93%
    21:00 +12°C° 1.1 mm 1 mps 601 mmHg 94%
    22:00 +10°C° 1.1 mm 2 mps 601 mmHg 94%
    23:00 +10°C° 0 mm 2 mps 601 mmHg 93%

    31 July, Monday

    Time Temperature Precipitation Wind Pressure Humidity
    00:00 +9°C° 0 mm 2 mps 601 mmHg 93%
    01:00 +9°C° 0 mm 2 mps 601 mmHg 92%
    02:00 +9°C° 0 mm 1 mps 600 mmHg 92%
    03:00 +9°C° 0 mm 1 mps 600 mmHg 92%
    04:00 +8°C° 0 mm 1 mps 600 mmHg 92%
    05:00 +10°C° 0 mm 1 mps 601 mmHg 89%
    06:00 +11°C° 0 mm 1 mps 602 mmHg 86%
    07:00 +13°C° 0 mm 1 mps 602 mmHg 82%
    08:00 +16°C° 0 mm 1 mps 604 mmHg 71%
    09:00 +19°C° 0 mm 1 mps 605 mmHg 60%
    10:00 +22°C° 0 mm 1 mps 606 mmHg 49%
    11:00 +22°C° 0 mm 1 mps 606 mmHg 47%
    12:00 +23°C° 0 mm 1 mps 606 mmHg 45%
    13:00 +23°C° 0 mm 2 mps 606 mmHg 43%
    14:00 +23°C° 0.2 mm 2 mps 606 mmHg 47%
    15:00 +23°C° 0.2 mm 2 mps 605 mmHg 50%
    16:00 +21°C° 0.2 mm 2 mps 605 mmHg 53%
    17:00 +20°C° 0.5 mm 2 mps 604 mmHg 63%
    18:00 +19°C° 0.5 mm 1 mps 604 mmHg 73%
    19:00 +16°C° 0.5 mm 1 mps 603 mmHg 83%
    20:00 +15°C° 0.3 mm 1 mps 603 mmHg 85%
    21:00 +14°C° 0.3 mm 1 mps 603 mmHg 87%
    22:00 +13°C° 0.3 mm 2 mps 603 mmHg 89%
    23:00 +12°C° 0.1 mm 2 mps 602 mmHg 89%

    1 August, Tuesday

    Time Temperature Precipitation Wind Pressure Humidity
    00:00 +12°C° 0.1 mm 2 mps 602 mmHg 89%
    01:00 +10°C° 0.1 mm 2 mps 602 mmHg 89%
    02:00 +10°C° 0 mm 2 mps 601 mmHg 88%
    03:00 +10°C° 0 mm 2 mps 601 mmHg 87%
    04:00 +9°C° 0 mm 2 mps 601 mmHg 86%
    05:00 +12°C° 0 mm 2 mps 602 mmHg 82%
    06:00 +13°C° 0 mm 2 mps 602 mmHg 79%
    07:00 +14°C° 0 mm 2 mps 603 mmHg 75%
    08:00 +17°C° 0 mm 2 mps 604 mmHg 65%
    09:00 +20°C° 0 mm 1 mps 605 mmHg 56%
    10:00 +23°C° 0 mm 1 mps 606 mmHg 46%
    11:00 +23°C° 0 mm 1 mps 606 mmHg 44%
    12:00 +24°C° 0 mm 2 mps 606 mmHg 42%
    13:00 +25°C° 0 mm 2 mps 606 mmHg 40%
    14:00 +24°C° 0.1 mm 2 mps 606 mmHg 42%
    15:00 +24°C° 0.1 mm 2 mps 606 mmHg 45%
    16:00 +24°C° 0.1 mm 3 mps 605 mmHg 48%
    17:00 +21°C° 0.6 mm 2 mps 605 mmHg 58%
    18:00 +19°C° 0.6 mm 2 mps 604 mmHg 69%
    19:00 +17°C° 0.6 mm 2 mps 603 mmHg 79%
    20:00 +16°C° 1.7 mm 2 mps 603 mmHg 85%
    21:00 +14°C° 1.7 mm 2 mps 603 mmHg 90%
    22:00 +12°C° 1.7 mm 1 mps 603 mmHg 95%
    23:00 +12°C° 0.2 mm 1 mps 603 mmHg 95%

    2 August, Wednesday

    Time Temperature Precipitation Wind Pressure Humidity
    00:00 +11°C° 0.2 mm 1 mps 603 mmHg 96%
    01:00 +11°C° 0.2 mm 1 mps 603 mmHg 96%
    02:00 +11°C° 0 mm 1 mps 602 mmHg 95%
    03:00 +10°C° 0 mm 1 mps 602 mmHg 93%
    04:00 +10°C° 0 mm 1 mps 602 mmHg 92%
    05:00 +12°C° 0 mm 1 mps 603 mmHg 86%
    06:00 +13°C° 0 mm 1 mps 604 mmHg 81%
    07:00 +15°C° 0 mm 1 mps 604 mmHg 75%
    08:00 +18°C° 0 mm 1 mps 605 mmHg 65%
    09:00 +20°C° 0 mm 1 mps 606 mmHg 54%
    10:00 +23°C° 0 mm 1 mps 607 mmHg 44%
    11:00 +23°C° 0 mm 1 mps 607 mmHg 43%
    12:00 +23°C° 0 mm 1 mps 607 mmHg 43%
    13:00 +24°C° 0 mm 2 mps 607 mmHg 43%
    14:00 +23°C° 0.1 mm 2 mps 607 mmHg 47%
    15:00 +23°C° 0.1 mm 1 mps 606 mmHg 51%
    16:00 +22°C° 0.1 mm 1 mps 606 mmHg 56%
    17:00 +21°C° 0.5 mm 1 mps 605 mmHg 65%
    18:00 +19°C° 0.5 mm 1 mps 605 mmHg 75%
    19:00 +16°C° 0.5 mm 1 mps 604 mmHg 84%
    20:00 +15°C° 0.1 mm 1 mps 604 mmHg 86%
    21:00 +14°C° 0.1 mm 1 mps 604 mmHg 87%
    22:00 +13°C° 0.1 mm 1 mps 603 mmHg 89%
    23:00 +12°C° 0.1 mm 1 mps 603 mmHg 88%
    Show more